Oak Harbor, WA

8:02 PM PST on December 08, 2016 (GMT -0800)
Whidbey Island Naval Air Station

Weather History for KNUW - October, 2011

Change the Weather History Date:

Monday, October 17, 2011

  Actual Average Record
Temperature  
Mean Temperature 48 °F -  
Max Temperature 55 °F 54 °F 66 °F (2000)
Min Temperature 42 °F 41 °F 33 °F (2010)
Degree Days  
Heating Degree Days 16    
Moisture  
Dew Point 43 °F    
Average Humidity 83    
Maximum Humidity 93    
Minimum Humidity 69    
Precipitation  
Precipitation 0.00 in - - ()
Sea Level Pressure  
Sea Level Pressure 30.41 in    
Wind  
Wind Speed 6 mph (ENE)    
Max Wind Speed 10 mph    
Max Gust Speed -    
Visibility 9 miles    
Events Fog    
Averages and records for this station are not official NWS values.
T = Trace of Precipitation, MM = Missing Value Source: NWS Daily Summary

Daily Weather History Graph

Daily Weather History Graph

Search for Another Location

Airport or City:

Trip Planner

Search our weather history database for the weather conditions in past years. The results will help you decide how hot, cold, wet, or windy it might be!

Date:

Astronomy

Oct. 17, 2011 Rise Set
Actual Time 7:33 AM PDT 6:18 PM PDT
Civil Twilight 7:01 AM PDT 6:49 PM PDT
Nautical Twilight 6:25 AM PDT 7:25 PM PDT
Astronomical Twilight 5:49 AM PDT 8:01 PM PDT
Moon 9:44 PM PDT (10/17) 1:03 PM PDT (10/17)
Length of Visible Light 11h 48m
Length of Day
10h 44m
Waning Gibbous, 73% of the Moon is Illuminated
Oct 17
Waning Gibbous
Oct 19
Last Quarter
Oct 26
New
Nov 2
First Quarter
Nov 10
Full

Hourly Weather History & Observations

Time (PDT) Temp. Windchill Dew Point Humidity Pressure Visibility Wind Dir Wind Speed Gust Speed Precip Events Conditions
12:56 AM 42.1 °F 38.4 °F 39.0 °F 89% 30.36 in 6.0 mi ESE 5.8 mph - N/A Fog Patches of Fog
1:56 AM 42.1 °F 38.4 °F 39.0 °F 89% 30.39 in 6.0 mi ESE 5.8 mph - N/A Fog Patches of Fog
2:56 AM 42.1 °F 38.4 °F 39.0 °F 89% 30.40 in 6.0 mi ESE 5.8 mph - N/A   Mostly Cloudy
3:56 AM 45.0 °F 41.8 °F 42.1 °F 90% 30.41 in 9.0 mi ESE 5.8 mph - N/A   Mostly Cloudy
4:56 AM 45.0 °F 41.8 °F 43.0 °F 93% 30.42 in 9.0 mi ESE 5.8 mph - N/A   Overcast
5:56 AM 46.0 °F 42.5 °F 43.0 °F 89% 30.42 in 9.0 mi ESE 6.9 mph - N/A   Mostly Cloudy
6:56 AM 45.0 °F 40.6 °F 42.1 °F 90% 30.44 in 8.0 mi East 8.1 mph - N/A   Overcast
7:56 AM 44.1 °F 40.1 °F 41.0 °F 89% 30.43 in 9.0 mi ESE 6.9 mph - N/A   Mostly Cloudy
8:56 AM 48.9 °F - 46.0 °F 90% 30.44 in 9.0 mi SE 6.9 mph - N/A   Mostly Cloudy
9:56 AM 51.1 °F - 46.0 °F 83% 30.46 in 10.0 mi East 9.2 mph - N/A   Mostly Cloudy
10:56 AM 54.0 °F - 45.0 °F 72% 30.46 in 10.0 mi ESE 5.8 mph - N/A   Scattered Clouds
11:56 AM 52.0 °F - 45.0 °F 77% 30.46 in 10.0 mi NW 8.1 mph - N/A   Scattered Clouds
12:56 PM 54.0 °F - 45.0 °F 72% 30.45 in 10.0 mi NNW 8.1 mph - N/A   Mostly Cloudy
1:56 PM 55.0 °F - 45.0 °F 69% 30.43 in 10.0 mi NW 5.8 mph - N/A   Overcast
2:56 PM 54.0 °F - 45.0 °F 72% 30.42 in 9.0 mi NW 10.4 mph - N/A   Mostly Cloudy
3:56 PM 53.1 °F - 46.0 °F 77% 30.41 in 9.0 mi West 6.9 mph - N/A   Overcast
4:56 PM 52.0 °F - 46.0 °F 80% 30.40 in 9.0 mi WNW 5.8 mph - N/A   Overcast
5:56 PM 50.0 °F - 45.0 °F 83% 30.39 in 9.0 mi NW 4.6 mph - N/A   Overcast
6:56 PM 48.0 °F - 43.0 °F 83% 30.38 in 8.0 mi North 5.8 mph - N/A   Overcast
7:56 PM 48.9 °F - 42.1 °F 77% 30.38 in 10.0 mi West 3.5 mph - N/A   Mostly Cloudy
8:56 PM 48.9 °F - 44.1 °F 83% 30.38 in 10.0 mi Calm Calm - N/A   Mostly Cloudy
9:56 PM 44.1 °F - 39.9 °F 85% 30.38 in 10.0 mi Calm Calm - N/A   Scattered Clouds
10:56 PM 43.0 °F - 39.9 °F 89% 30.37 in 9.0 mi Calm Calm - N/A   Scattered Clouds
11:56 PM 44.1 °F 40.8 °F 41.0 °F 89% 30.36 in 10.0 mi NNW 5.8 mph - N/A   Partly Cloudy